Ypsilanti, MI

1:43 PM EDT on May 29, 2017 (GMT -0400)
Willow Run

Weather History for KYIP - January, 2014

Change the Weather History Date:

Friday, January 24, 2014

  Actual Average Record
Temperature  
Mean Temperature 9 °F -  
Max Temperature 19 °F 32 °F 60 °F (1950)
Min Temperature 0 °F 18 °F -5 °F (2004)
Degree Days  
Heating Degree Days 56    
Moisture  
Dew Point 1 °F    
Average Humidity 65    
Maximum Humidity 79    
Minimum Humidity 57    
Precipitation  
Precipitation 0.00 in - - ()
Sea Level Pressure  
Sea Level Pressure 29.98 in    
Wind  
Wind Speed 19 mph (SW)    
Max Wind Speed 32 mph    
Max Gust Speed 46 mph    
Visibility 5 miles    
Events Snow    
Averages and records for this station are not official NWS values.
T = Trace of Precipitation, MM = Missing Value Source: NWS Daily Summary

Daily Weather History Graph

Daily Weather History Graph

Search for Another Location

Airport or City:

Trip Planner

Search our weather history database for the weather conditions in past years. The results will help you decide how hot, cold, wet, or windy it might be!

Date:

Astronomy

Jan. 24, 2014 Rise Set
Actual Time 7:54 AM EST 5:38 PM EST
Civil Twilight 7:24 AM EST 6:08 PM EST
Nautical Twilight 6:50 AM EST 6:42 PM EST
Astronomical Twilight 6:17 AM EST 7:15 PM EST
Moon 1:19 AM EST (1/24) 11:57 AM EST (1/24)
Length of Visible Light 10h 44m
Length of Day
9h 43m
Last Quarter, 45% of the Moon is Illuminated
Jan 24
Last Quarter
Jan 30
New
Feb 6
First Quarter
Feb 14
Full
Feb 22
Last Quarter

Hourly Weather History & Observations

Time (EST) Temp. Windchill Dew Point Humidity Pressure Visibility Wind Dir Wind Speed Gust Speed Precip Events Conditions
12:53 AM -0.0 °F -13.0 °F -5.1 °F 79% 30.47 in 10.0 mi SSW 6.9 mph - N/A   Partly Cloudy
1:53 AM 1.9 °F -12.9 °F -4.0 °F 76% 30.45 in 10.0 mi SSW 9.2 mph - N/A   Partly Cloudy
2:53 AM 3.0 °F -10.5 °F -2.9 °F 76% 30.45 in 5.0 mi SW 8.1 mph - N/A   Haze
3:53 AM 1.9 °F -12.9 °F -5.1 °F 72% 30.43 in 10.0 mi SW 9.2 mph - N/A   Clear
4:53 AM 1.0 °F -15.8 °F -5.1 °F 75% 30.42 in 10.0 mi SW 11.5 mph - N/A   Clear
5:53 AM 1.0 °F -16.6 °F -6.0 °F 72% 30.40 in 10.0 mi SSW 12.7 mph - N/A   Clear
6:53 AM -0.0 °F -20.1 °F -7.1 °F 72% 30.39 in 10.0 mi SW 16.1 mph - N/A   Clear
7:53 AM -0.0 °F -18.7 °F -7.1 °F 72% 30.37 in 9.0 mi SSW 13.8 mph - N/A   Clear
8:53 AM -0.9 °F -21.2 °F -8.0 °F 72% 30.34 in 10.0 mi SW 16.1 mph - N/A   Clear
9:53 AM -0.0 °F -22.4 °F -9.0 °F 66% 30.31 in 9.0 mi SW 20.7 mph - N/A   Partly Cloudy
10:53 AM 1.9 °F -19.2 °F -7.1 °F 66% 30.28 in 8.0 mi SW 19.6 mph - N/A   Overcast
11:53 AM 3.9 °F -19.4 °F -6.0 °F 64% 30.20 in 4.0 mi SSW 26.5 mph 33.4 mph N/A   Haze
12:53 PM 7.0 °F -15.6 °F -4.0 °F 61% 30.12 in 10.0 mi SW 27.6 mph 35.7 mph N/A   Mostly Cloudy
1:40 PM 8.6 °F -13.8 °F -2.2 °F 62% 29.99 in 2.5 mi SSW 28.8 mph 40.3 mph N/A   Scattered Clouds
1:48 PM 8.6 °F -14.1 °F -2.2 °F 62% 29.98 in 5.0 mi SW 29.9 mph 36.8 mph N/A   Scattered Clouds
1:53 PM 9.0 °F -12.6 °F -2.0 °F 61% 30.03 in 5.0 mi SW 26.5 mph 35.7 mph N/A   Scattered Clouds
2:05 PM 10.4 °F -11.7 °F -2.2 °F 57% 29.97 in 2.0 mi SSW 29.9 mph 41.4 mph N/A   Mostly Cloudy
2:11 PM 10.4 °F -12.3 °F -2.2 °F 57% 29.96 in 5.0 mi SW 32.2 mph 41.4 mph N/A   Overcast
2:53 PM 10.9 °F -11.0 °F -0.9 °F 59% 29.96 in 5.0 mi SSW 29.9 mph 41.4 mph N/A   Overcast
3:53 PM 12.0 °F -8.1 °F -0.0 °F 59% 29.91 in 5.0 mi SSW 25.3 mph 39.1 mph N/A   Overcast
4:14 PM 12.2 °F -7.9 °F -0.4 °F 57% 29.86 in 2.5 mi SSW 25.3 mph 41.4 mph N/A   Overcast
4:16 PM 12.2 °F -7.5 °F 1.4 °F 62% 29.85 in 5.0 mi SSW 24.2 mph 40.3 mph N/A   Overcast
4:53 PM 12.9 °F -7.3 °F 1.0 °F 59% 29.87 in 5.0 mi SSW 26.5 mph 39.1 mph N/A   Overcast
5:39 PM 14.0 °F -6.5 °F 1.4 °F 57% 29.83 in 1.8 mi SSW 28.8 mph 40.3 mph N/A   Overcast
5:46 PM 14.0 °F -6.5 °F 1.4 °F 57% 29.82 in 3.0 mi SW 28.8 mph 41.4 mph N/A   Overcast
5:53 PM 14.0 °F -6.2 °F 1.9 °F 59% 29.86 in 2.5 mi SW 27.6 mph 46.0 mph N/A   Overcast
6:03 PM 14.0 °F -5.5 °F 1.4 °F 57% 29.81 in 5.0 mi SSW 25.3 mph 43.7 mph N/A   Overcast
6:53 PM 15.1 °F -5.7 °F 3.9 °F 61% 29.83 in 2.5 mi SSW 31.1 mph 38.0 mph 0.00 in Snow Light Snow
7:06 PM 15.8 °F -2.7 °F 3.2 °F 58% 29.78 in 1.8 mi SSW 24.2 mph 42.6 mph 0.00 in Snow Light Snow
7:13 PM 15.8 °F -3.4 °F 3.2 °F 58% 29.78 in 3.0 mi SW 26.5 mph 34.5 mph 0.00 in Snow Light Snow
7:53 PM 16.0 °F -3.2 °F 6.1 °F 65% 29.78 in 1.5 mi SW 26.5 mph 40.3 mph 0.00 in Snow Light Snow
8:53 PM 18.0 °F 0.2 °F 7.0 °F 62% 29.74 in 2.5 mi SSW 24.2 mph 35.7 mph 0.00 in Snow Light Snow
9:05 PM 17.6 °F -1.6 °F 6.8 °F 63% 29.69 in 1.5 mi SSW 28.8 mph 39.1 mph 0.00 in Snow Light Snow
9:15 PM 17.6 °F -1.9 °F 6.8 °F 63% 29.68 in 2.0 mi SW 29.9 mph 41.4 mph 0.00 in Snow Light Snow
9:40 PM 17.6 °F -1.0 °F 8.6 °F 68% 29.65 in 1.2 mi SW 26.5 mph 43.7 mph 0.00 in Snow Light Snow
9:53 PM 18.0 °F 0.2 °F 9.0 °F 68% 29.68 in 2.0 mi SSW 24.2 mph 41.4 mph 0.00 in Snow Light Snow
10:19 PM 17.6 °F -1.0 °F 8.6 °F 68% 29.63 in 4.0 mi SW 26.5 mph 36.8 mph 0.00 in Snow Light Snow
10:27 PM 17.6 °F -1.6 °F 10.4 °F 73% 29.62 in 1.8 mi SW 28.8 mph 35.7 mph 0.00 in Snow Light Snow
10:41 PM 17.6 °F 0.1 °F 10.4 °F 73% 29.61 in 1.2 mi SW 23.0 mph 35.7 mph 0.00 in Snow Light Snow
10:53 PM 18.0 °F 0.2 °F 10.9 °F 74% 29.63 in 1.0 mi SW 24.2 mph 35.7 mph 0.00 in Snow Light Snow
11:53 PM 19.0 °F 2.7 °F 12.0 °F 74% 29.58 in 1.8 mi SSW 20.7 mph 31.1 mph 0.00 in Snow Light Snow